Regional Weather Roundup
Issued by NWS Northern Indiana

Home | Current Version | Previous Version | Text Only | Print | Product List | Glossary Off
Versions: 1 2 3 4 5 6 7 8 9 10 11 12 13 14 15 16 17 18 19 20 21 22 23 24 25 26 27 28 29 30 31 32 33 34 35 36 37 38 39 40 41 42 43 44 45 46 47 48 49 50

634
ASUS43 KIWX 250110
RWRIWX

KIWX WEATHER ROUNDUP
NATIONAL WEATHER SERVICE NORTHERN INDIANA
800 PM EST FRI FEB 24 2017

NOTE: "FAIR" INDICATES FEW OR NO CLOUDS BELOW 12,000 FEET WITH NO
SIGNIFICANT WEATHER AND/OR OBSTRUCTIONS TO VISIBILITY.

* THESE STATIONS ARE NOT UNDER NWS QUALITY CONTROL. THEY ALSO MAY NOT
  REPORT WEATHER SUCH AS PRECIPITATION OR FOG.

INZ001>027-250200-
NORTHERN INDIANA

CITY           SKY/WX    TMP DP  RH WIND       PRES   REMARKS
GARY*          CLOUDY    45  37  76 W21       29.54S
VALPARAISO     CLOUDY    41  40  96 N5        29.54R FOG
MICHIGAN CITY* CLOUDY    36  36 100 W5        29.54R FOG
LAPORTE*       CLOUDY    37  37  99 W7        29.54R FOG
KNOX*          CLOUDY    45  28  53 W15G25    29.53R
SOUTH BEND     CLOUDY    40  40 100 W12G20    29.52R FOG
ELKHART*       CLOUDY    46  43  87 W16       29.50R
GOSHEN         LGT RAIN  49  45  86 W18G24    29.50R FOG
MONTICELLO*    CLOUDY    46  40  82 W18G24    29.56R
LOGANSPORT*    RAIN      46  43  87 W17G24    29.55R
ROCHESTER*     LGT RAIN  50  46  87 W16G23    29.54R
WARSAW*        HVY RAIN  52  48  87 W20G25    29.51R
ANGOLA*        CLOUDY    59  59 100 SW12      29.46R
FORT WAYNE     LGT RAIN  62  55  77 SW17G25   29.48R
HUNTINGTON*    LGT RAIN  55  54  94 W15G29    29.50R
PERU/GRISSOM   LGT RAIN  51  51 100 W23G30    29.52R
MARION*        LGT RAIN  54  52  92 W14       29.52R

$$
INZ028>050-250200-
CENTRAL INDIANA

CITY           SKY/WX    TMP DP  RH WIND       PRES   REMARKS
LAFAYETTE      LGT RAIN  47  42  83 W18G26    29.58R
KOKOMO*        LGT RAIN  53  49  86 W24       29.53R
MUNCIE*        CLOUDY    64  54  69 W6        29.50R
INDIANAPOLIS   TSTM      53  50  89 W22G30    29.55R

$$
MIZ043>046-050>051-056>058-064>065-071>073-077>080-250200-
SOUTHWEST LOWER MICHIGAN

CITY           SKY/WX    TMP DP  RH WIND       PRES   REMARKS
BATTLE CREEK   LGT RAIN  56  54  93 W16       29.44R
BENTON HARBOR  FOG       39  37  92 W13       29.50F VSB 1
COLDWATER*     CLOUDY    58  57  96 S9G16     29.44R
HILLSDALE*     RAIN      59  54  82 S10       29.43F
HOLLAND        CLOUDY    43  42  97 SW13      29.46R
GRAND RAPIDS   CLOUDY    48  46  93 SW15G24   29.43R FOG
KALAMAZOO      CLOUDY    51  46  83 W20G26    29.46R
STURGIS*       RAIN      54  52  94 W15G22    29.46R
THREE RIVERS*  CLOUDY    50  47  88 W14G28    29.48R

$$
OHZ001>008-015>018-024>025-250200-
NORTHWEST OHIO

CITY           SKY/WX    TMP DP  RH WIND       PRES   REMARKS
WAUSEON*       FAIR      59  54  82 S8        29.46S
DEFIANCE       PTCLDY    60  52  74 S8        29.46S
FINDLAY        LGT RAIN  62  52  69 S20       29.47F
TOLEDO EXPRESS MOCLDY    61  53  75 S6        29.46F
TOLEDO METCALF CLOUDY    63  55  75 S16       29.48F
LIMA           CLOUDY    62  56  80 S17       29.48F

$$
AND FOR LAKE MICHIGAN COASTAL AND OPEN LAKE BUOY OBSERVATIONS

STATION/POSITION TEMP    WIND        PRES    VSBY  WAVE
                 AIR SEA DIR/SP/G                  HT/PER
                 (F)     (DEG/KT/KT) (MB)    (MI)  (FT/S)
CALUMET HARBOR    43     250/  7/ 15 1000.0R
MICHIGAN CITY     36     260/  9/  9   N/A
BURNS HARBOR      36     330/  5/ 10 1001.4R
SAINT JOSEPH      38     270/  9/ 12 1000.0

$$
&&




USA.gov is the U.S. government's official web portal to all federal, state and local government web resources and services.